• In Uzbekistan
  • List of Countries
  • For 7 days
  • Water Temperature
  • Satellite Maps
  • Weather Map
  • Weather Widgets
  • user-avatar
    Login

    Hourly Weather Abovyan

    Today, 30 April, Sunday

    Time Temperature Precipitation Wind Pressure Humidity
    00:00 +12°C° 0.5 mm 1 mps 671 mmHg 81%
    01:00 +11°C° 0.3 mm 1 mps 671 mmHg 82%
    02:00 +11°C° 0.3 mm 1 mps 670 mmHg 83%
    03:00 +10°C° 0.3 mm 1 mps 670 mmHg 84%
    04:00 +11°C° 0.1 mm 1 mps 670 mmHg 83%
    05:00 +11°C° 0.1 mm 1 mps 671 mmHg 82%
    06:00 +11°C° 0.1 mm 1 mps 671 mmHg 80%
    07:00 +13°C° 0.1 mm 1 mps 671 mmHg 71%
    08:00 +15°C° 0.1 mm 1 mps 672 mmHg 61%
    09:00 +19°C° 0.1 mm 1 mps 672 mmHg 51%
    10:00 +19°C° 0.1 mm 2 mps 672 mmHg 48%
    11:00 +20°C° 0.1 mm 2 mps 672 mmHg 44%
    12:00 +21°C° 0.1 mm 2 mps 672 mmHg 40%
    13:00 +21°C° 0.3 mm 2 mps 672 mmHg 39%
    14:00 +23°C° 0.3 mm 2 mps 672 mmHg 39%
    15:00 +23°C° 0.3 mm 2 mps 672 mmHg 38%
    16:00 +21°C° 0.2 mm 2 mps 671 mmHg 42%
    17:00 +20°C° 0.2 mm 2 mps 671 mmHg 46%
    18:00 +19°C° 0.2 mm 2 mps 671 mmHg 51%
    19:00 +18°C° 0.2 mm 1 mps 671 mmHg 56%
    20:00 +15°C° 0.2 mm 1 mps 670 mmHg 62%
    21:00 +12°C° 0.2 mm 1 mps 670 mmHg 67%
    22:00 +12°C° 0.1 mm 1 mps 670 mmHg 68%
    23:00 +11°C° 0.1 mm 1 mps 670 mmHg 68%

    Tomorrow, 1 May, Monday

    Time Temperature Precipitation Wind Pressure Humidity
    00:00 +11°C° 0.1 mm 1 mps 670 mmHg 69%
    01:00 +10°C° 0.1 mm 1 mps 670 mmHg 68%
    02:00 +10°C° 0.1 mm 1 mps 670 mmHg 68%
    03:00 +9°C° 0.1 mm 1 mps 670 mmHg 68%
    04:00 +10°C° 0 mm 1 mps 670 mmHg 65%
    05:00 +11°C° 0 mm 1 mps 670 mmHg 63%
    06:00 +11°C° 0 mm 1 mps 671 mmHg 60%
    07:00 +14°C° 0 mm 1 mps 671 mmHg 53%
    08:00 +18°C° 0 mm 1 mps 672 mmHg 46%
    09:00 +19°C° 0 mm 2 mps 672 mmHg 39%
    10:00 +21°C° 0 mm 2 mps 672 mmHg 35%
    11:00 +23°C° 0 mm 2 mps 672 mmHg 32%
    12:00 +24°C° 0 mm 2 mps 672 mmHg 29%
    13:00 +25°C° 0 mm 2 mps 672 mmHg 28%
    14:00 +25°C° 0 mm 2 mps 672 mmHg 28%
    15:00 +25°C° 0 mm 2 mps 671 mmHg 27%
    16:00 +24°C° 0.1 mm 2 mps 671 mmHg 33%
    17:00 +22°C° 0.1 mm 1 mps 671 mmHg 40%
    18:00 +21°C° 0.1 mm 1 mps 670 mmHg 46%
    19:00 +19°C° 0.1 mm 1 mps 671 mmHg 48%
    20:00 +18°C° 0.1 mm 1 mps 671 mmHg 50%
    21:00 +15°C° 0.1 mm 1 mps 671 mmHg 52%
    22:00 +15°C° 0.1 mm 1 mps 671 mmHg 55%
    23:00 +14°C° 0.1 mm 1 mps 671 mmHg 59%

    Day after tomorrow, 2 May, Tuesday

    Time Temperature Precipitation Wind Pressure Humidity
    00:00 +14°C° 0.1 mm 1 mps 671 mmHg 62%
    01:00 +14°C° 0.1 mm 1 mps 671 mmHg 64%
    02:00 +14°C° 0.1 mm 1 mps 670 mmHg 65%
    03:00 +13°C° 0.1 mm 1 mps 670 mmHg 67%
    04:00 +14°C° 0.1 mm 1 mps 670 mmHg 67%
    05:00 +14°C° 0.1 mm 1 mps 671 mmHg 68%
    06:00 +14°C° 0.1 mm 1 mps 671 mmHg 68%
    07:00 +16°C° 0.1 mm 1 mps 671 mmHg 60%
    08:00 +19°C° 0.1 mm 1 mps 672 mmHg 52%
    09:00 +20°C° 0.1 mm 2 mps 672 mmHg 44%
    10:00 +21°C° 0.1 mm 2 mps 672 mmHg 42%
    11:00 +23°C° 0.1 mm 2 mps 672 mmHg 40%
    12:00 +24°C° 0.1 mm 3 mps 672 mmHg 38%
    13:00 +25°C° 0.2 mm 3 mps 671 mmHg 38%
    14:00 +25°C° 0.2 mm 2 mps 671 mmHg 39%
    15:00 +25°C° 0.2 mm 2 mps 671 mmHg 39%
    16:00 +24°C° 0.4 mm 2 mps 670 mmHg 45%
    17:00 +23°C° 0.4 mm 2 mps 670 mmHg 51%
    18:00 +21°C° 0.4 mm 1 mps 670 mmHg 56%
    19:00 +20°C° 0.4 mm 1 mps 670 mmHg 62%
    20:00 +19°C° 0.4 mm 1 mps 670 mmHg 68%
    21:00 +16°C° 0.4 mm 1 mps 670 mmHg 73%
    22:00 +16°C° 0.8 mm 1 mps 670 mmHg 76%
    23:00 +15°C° 0.8 mm 1 mps 670 mmHg 79%

    3 May, Wednesday

    Time Temperature Precipitation Wind Pressure Humidity
    00:00 +15°C° 0.8 mm 1 mps 670 mmHg 82%
    01:00 +14°C° 2.2 mm 1 mps 669 mmHg 85%
    02:00 +14°C° 2.2 mm 1 mps 669 mmHg 87%
    03:00 +14°C° 2.2 mm 1 mps 669 mmHg 90%
    04:00 +14°C° 1.3 mm 1 mps 669 mmHg 90%
    05:00 +14°C° 1.3 mm 1 mps 669 mmHg 89%
    06:00 +13°C° 1.3 mm 1 mps 669 mmHg 89%
    07:00 +15°C° 0.1 mm 1 mps 669 mmHg 83%
    08:00 +16°C° 0.1 mm 1 mps 669 mmHg 76%
    09:00 +18°C° 0.1 mm 2 mps 670 mmHg 69%
    10:00 +19°C° 0.3 mm 2 mps 670 mmHg 62%
    11:00 +20°C° 0.3 mm 2 mps 670 mmHg 55%
    12:00 +23°C° 0.3 mm 2 mps 670 mmHg 48%
    13:00 +23°C° 0.6 mm 2 mps 670 mmHg 47%
    14:00 +22°C° 0.6 mm 3 mps 669 mmHg 46%
    15:00 +22°C° 0.6 mm 3 mps 669 mmHg 45%
    16:00 +21°C° 0.7 mm 2 mps 669 mmHg 50%
    17:00 +20°C° 0.7 mm 2 mps 669 mmHg 55%
    18:00 +20°C° 0.7 mm 1 mps 669 mmHg 60%
    19:00 +18°C° 0.4 mm 1 mps 669 mmHg 64%
    20:00 +15°C° 0.4 mm 1 mps 669 mmHg 68%
    21:00 +14°C° 0.4 mm 1 mps 668 mmHg 72%
    22:00 +13°C° 0.2 mm 1 mps 668 mmHg 73%
    23:00 +12°C° 0.2 mm 1 mps 668 mmHg 74%

    4 May, Thursday

    Time Temperature Precipitation Wind Pressure Humidity
    00:00 +12°C° 0.2 mm 1 mps 668 mmHg 75%
    01:00 +11°C° 0.1 mm 1 mps 668 mmHg 76%
    02:00 +11°C° 0.1 mm 1 mps 667 mmHg 76%
    03:00 +10°C° 0.1 mm 1 mps 667 mmHg 77%
    04:00 +11°C° 0 mm 1 mps 667 mmHg 75%
    05:00 +12°C° 0 mm 1 mps 668 mmHg 73%
    06:00 +13°C° 0 mm 1 mps 668 mmHg 71%
    07:00 +15°C° 0 mm 1 mps 669 mmHg 63%
    08:00 +18°C° 0 mm 1 mps 669 mmHg 55%
    09:00 +20°C° 0 mm 1 mps 670 mmHg 48%
    10:00 +22°C° 0.2 mm 1 mps 669 mmHg 44%
    11:00 +23°C° 0.2 mm 1 mps 669 mmHg 40%
    12:00 +24°C° 0.2 mm 1 mps 669 mmHg 37%
    13:00 +24°C° 0.2 mm 1 mps 669 mmHg 36%
    14:00 +24°C° 0.2 mm 1 mps 669 mmHg 35%
    15:00 +24°C° 0.2 mm 1 mps 669 mmHg 35%
    16:00 +23°C° 0.3 mm 1 mps 669 mmHg 40%
    17:00 +22°C° 0.3 mm 1 mps 669 mmHg 46%
    18:00 +21°C° 0.3 mm 1 mps 669 mmHg 51%
    19:00 +19°C° 0.2 mm 1 mps 669 mmHg 56%
    20:00 +16°C° 0.2 mm 1 mps 669 mmHg 60%
    21:00 +14°C° 0.2 mm 1 mps 669 mmHg 64%
    22:00 +14°C° 0.1 mm 1 mps 669 mmHg 66%
    23:00 +13°C° 0.1 mm 1 mps 669 mmHg 68%

    5 May, Friday

    Time Temperature Precipitation Wind Pressure Humidity
    00:00 +13°C° 0.1 mm 1 mps 669 mmHg 70%
    01:00 +12°C° 0.1 mm 1 mps 669 mmHg 71%
    02:00 +12°C° 0.1 mm 1 mps 669 mmHg 72%
    03:00 +11°C° 0.1 mm 1 mps 669 mmHg 74%
    04:00 +12°C° 0 mm 1 mps 669 mmHg 72%
    05:00 +13°C° 0 mm 1 mps 669 mmHg 71%
    06:00 +13°C° 0 mm 1 mps 669 mmHg 70%
    07:00 +16°C° 0 mm 1 mps 670 mmHg 63%
    08:00 +19°C° 0 mm 1 mps 670 mmHg 55%
    09:00 +21°C° 0 mm 1 mps 671 mmHg 47%
    10:00 +22°C° 0.1 mm 1 mps 670 mmHg 45%
    11:00 +23°C° 0.1 mm 1 mps 670 mmHg 42%
    12:00 +24°C° 0.1 mm 2 mps 670 mmHg 40%
    13:00 +24°C° 0.3 mm 2 mps 669 mmHg 40%
    14:00 +24°C° 0.3 mm 2 mps 669 mmHg 41%
    15:00 +24°C° 0.3 mm 2 mps 668 mmHg 41%
    16:00 +23°C° 0.4 mm 2 mps 668 mmHg 47%
    17:00 +22°C° 0.4 mm 1 mps 668 mmHg 52%
    18:00 +21°C° 0.4 mm 1 mps 668 mmHg 57%
    19:00 +19°C° 0.7 mm 1 mps 668 mmHg 61%
    20:00 +18°C° 0.7 mm 1 mps 668 mmHg 65%
    21:00 +15°C° 0.7 mm 1 mps 668 mmHg 69%
    22:00 +15°C° 0.5 mm 1 mps 668 mmHg 70%
    23:00 +15°C° 0.5 mm 1 mps 668 mmHg 72%
    Show more